BAW8789 RCTP-VHHX

Flight info

Callsign BAW8789
Flight time N/A
Altitude 60000
Route CHALI1A CHALI T3 MKG A1 ELATO
Aircraft CONC/H-HSDFIRWXC/LB1D1

Departure

Time 2026-05-04 02:37
Airport Taiwan Taoyuan International Airport (RCTP)

Arrival

Time N/A
Airport Hong Kong International Airport Kai Tak (VHHX)
Time Latitude Longitude Altitude Speed Heading
2026-05-04 02:06 25.08026 121.23964 118 ft 0 kts 319°
2026-05-04 02:18 25.08016 121.23973 118 ft 2 kts 319°
2026-05-04 02:19 25.08005 121.23984 118 ft 2 kts 320°
2026-05-04 02:19 25.07994 121.23994 118 ft 2 kts 319°
2026-05-04 02:19 25.07982 121.24005 118 ft 2 kts 319°
2026-05-04 02:19 25.07975 121.24012 118 ft 1 kts 319°
2026-05-04 02:20 25.07965 121.24024 118 ft 2 kts 303°
2026-05-04 02:20 25.07958 121.24039 118 ft 2 kts 291°
2026-05-04 02:20 25.07954 121.24054 118 ft 2 kts 277°
2026-05-04 02:20 25.07954 121.24071 118 ft 2 kts 263°
2026-05-04 02:21 25.07958 121.24086 118 ft 2 kts 250°
2026-05-04 02:21 25.07964 121.24101 118 ft 2 kts 236°
2026-05-04 02:21 25.07970 121.24108 118 ft 1 kts 227°
2026-05-04 02:21 25.07972 121.24111 118 ft 0 kts 229°
2026-05-04 02:24 25.07966 121.24104 118 ft 2 kts 229°
2026-05-04 02:24 25.07945 121.24078 118 ft 6 kts 229°
2026-05-04 02:25 25.07911 121.24034 118 ft 8 kts 230°
2026-05-04 02:25 25.07865 121.23974 118 ft 11 kts 229°
2026-05-04 02:25 25.07806 121.23900 118 ft 14 kts 229°
2026-05-04 02:25 25.07744 121.23820 118 ft 12 kts 229°
2026-05-04 02:26 25.07695 121.23759 118 ft 9 kts 229°
2026-05-04 02:26 25.07658 121.23711 118 ft 8 kts 229°
2026-05-04 02:26 25.07612 121.23651 118 ft 13 kts 229°
2026-05-04 02:26 25.07539 121.23558 118 ft 18 kts 229°
2026-05-04 02:27 25.07450 121.23444 118 ft 21 kts 229°
2026-05-04 02:27 25.07346 121.23311 118 ft 23 kts 229°
2026-05-04 02:27 25.07254 121.23199 118 ft 16 kts 219°
2026-05-04 02:27 25.07169 121.23208 118 ft 11 kts 142°
2026-05-04 02:28 25.07116 121.23257 118 ft 8 kts 148°
2026-05-04 02:28 25.07069 121.23262 118 ft 6 kts 199°
2026-05-04 02:28 25.07024 121.23224 118 ft 10 kts 228°
2026-05-04 02:28 25.06968 121.23154 118 ft 14 kts 229°
2026-05-04 02:29 25.06894 121.23060 118 ft 18 kts 229°
2026-05-04 02:29 25.06799 121.22942 118 ft 22 kts 229°
2026-05-04 02:29 25.06687 121.22799 118 ft 26 kts 228°
2026-05-04 02:29 25.06557 121.22636 118 ft 31 kts 231°
2026-05-04 02:30 25.06402 121.22435 118 ft 32 kts 229°
2026-05-04 02:30 25.06291 121.22293 118 ft 15 kts 229°
2026-05-04 02:30 25.06219 121.22250 118 ft 8 kts 169°
2026-05-04 02:30 25.06183 121.22269 118 ft 4 kts 142°
2026-05-04 02:31 25.06167 121.22284 118 ft 3 kts 140°
2026-05-04 02:31 25.06137 121.22312 118 ft 7 kts 139°
2026-05-04 02:31 25.06101 121.22356 118 ft 6 kts 109°
2026-05-04 02:31 25.06103 121.22374 118 ft 0 kts 52°
2026-05-04 02:32 25.06139 121.22424 118 ft 30 kts 50°
2026-05-04 02:32 25.06509 121.22892 118 ft 85 kts 49°
2026-05-04 02:32 25.06656 121.23074 118 ft 6 kts 35°
2026-05-04 02:32 25.06683 121.23073 118 ft 2 kts 321°
2026-05-04 02:33 25.06694 121.23053 118 ft 4 kts 287°
2026-05-04 02:33 25.06694 121.22998 118 ft 9 kts 261°
2026-05-04 02:33 25.06678 121.22904 118 ft 15 kts 258°
2026-05-04 02:33 25.06647 121.22774 118 ft 19 kts 247°
2026-05-04 02:34 25.06561 121.22638 118 ft 23 kts 229°
2026-05-04 02:34 25.06459 121.22508 118 ft 20 kts 229°
2026-05-04 02:34 25.06370 121.22394 118 ft 17 kts 229°
2026-05-04 02:34 25.06295 121.22298 118 ft 15 kts 229°
2026-05-04 02:35 25.06220 121.22250 118 ft 11 kts 171°
2026-05-04 02:35 25.06160 121.22288 118 ft 8 kts 139°
2026-05-04 02:35 25.06124 121.22325 118 ft 5 kts 136°
2026-05-04 02:35 25.06105 121.22362 118 ft 6 kts 83°
2026-05-04 02:36 25.06118 121.22390 118 ft 0 kts 50°
2026-05-04 02:36 25.06154 121.22437 118 ft 30 kts 50°
2026-05-04 02:36 25.06565 121.22961 118 ft 150 kts 49°
2026-05-04 02:36 25.07495 121.24147 304 ft 248 kts 50°
2026-05-04 02:37 25.08663 121.25603 841 ft 244 kts 49°
2026-05-04 02:37 25.09783 121.26932 1155 ft 234 kts 47°
2026-05-04 02:37 25.10918 121.28236 1636 ft 230 kts 46°
2026-05-04 02:37 25.12016 121.29473 2513 ft 233 kts 46°
2026-05-04 02:38 25.13319 121.30589 2728 ft 242 kts 21°
2026-05-04 02:38 25.15002 121.30599 3378 ft 261 kts 340°
2026-05-04 02:38 25.16407 121.29267 4349 ft 283 kts 298°
2026-05-04 02:38 25.17094 121.27232 5309 ft 293 kts 292°
2026-05-04 02:39 25.18059 121.25249 6043 ft 296 kts 307°
2026-05-04 02:39 25.19349 121.23511 6610 ft 285 kts 307°
2026-05-04 02:39 25.20640 121.21857 7140 ft 292 kts 308°
2026-05-04 02:39 25.22035 121.20226 7681 ft 292 kts 310°
2026-05-04 02:40 25.23484 121.18648 8221 ft 294 kts 311°
2026-05-04 02:40 25.24974 121.17118 8761 ft 293 kts 312°
2026-05-04 02:40 25.26475 121.15615 9297 ft 293 kts 310°
2026-05-04 02:40 25.27673 121.13870 9850 ft 282 kts 282°
2026-05-04 02:41 25.27806 121.11782 10534 ft 271 kts 248°
2026-05-04 02:41 25.26819 121.10080 11266 ft 273 kts 225°
2026-05-04 02:41 25.25474 121.08547 11927 ft 295 kts 233°
2026-05-04 02:41 25.24106 121.06599 12287 ft 353 kts 232°
2026-05-04 02:42 25.22336 121.04263 12259 ft 424 kts 230°
2026-05-04 02:42 25.20391 121.01787 12158 ft 411 kts 229°
2026-05-04 02:42 25.18441 120.99648 14660 ft 417 kts 226°
2026-05-04 02:42 25.16303 120.97358 15836 ft 439 kts 227°
2026-05-04 02:43 25.14100 120.94965 16804 ft 451 kts 227°
2026-05-04 02:43 25.11870 120.92558 17352 ft 452 kts 227°
2026-05-04 02:43 25.09615 120.90125 18022 ft 453 kts 227°
2026-05-04 02:43 25.08021 120.88407 18516 ft 455 kts 227°
2026-05-04 02:44 25.05733 120.85937 19186 ft 459 kts 227°
2026-05-04 02:44 25.03471 120.83506 20021 ft 459 kts 227°
2026-05-04 02:44 25.01149 120.81007 20794 ft 467 kts 227°
2026-05-04 02:44 24.98820 120.78503 21519 ft 470 kts 227°
2026-05-04 02:45 24.96483 120.75992 22210 ft 475 kts 227°
2026-05-04 02:45 24.94099 120.73438 22939 ft 482 kts 227°
2026-05-04 02:45 24.91671 120.70829 23682 ft 485 kts 227°
2026-05-04 02:45 24.89246 120.68230 24439 ft 491 kts 227°
2026-05-04 02:46 24.86808 120.65626 25214 ft 496 kts 227°
2026-05-04 02:46 24.84304 120.62939 25981 ft 502 kts 227°
2026-05-04 02:46 24.81779 120.60234 26751 ft 510 kts 227°
2026-05-04 02:46 24.79225 120.57506 27241 ft 515 kts 227°
2026-05-04 02:47 24.76617 120.54711 27669 ft 542 kts 227°
2026-05-04 02:47 24.73871 120.51780 28100 ft 564 kts 226°
2026-05-04 02:47 24.70816 120.48940 27260 ft 595 kts 217°
2026-05-04 02:47 24.67406 120.46575 27222 ft 573 kts 218°
2026-05-04 02:48 24.64230 120.43998 28594 ft 567 kts 220°
2026-05-04 02:48 24.60945 120.41484 29418 ft 586 kts 218°
2026-05-04 02:48 24.57524 120.38855 29056 ft 616 kts 219°
2026-05-04 02:48 24.54010 120.36110 28184 ft 623 kts 218°
2026-05-04 02:49 24.50653 120.33558 30899 ft 579 kts 218°
2026-05-04 02:49 24.47486 120.31093 33713 ft 566 kts 219°
2026-05-04 02:49 24.44223 120.28561 33862 ft 595 kts 219°
2026-05-04 02:49 24.40705 120.25847 33623 ft 622 kts 218°